TimeCDT,TemperatureF,Dew PointF,Humidity,Sea Level PressureIn,VisibilityMPH,Wind Direction,Wind SpeedMPH,Gust SpeedMPH,PrecipitationIn,Events,Conditions,WindDirDegrees,DateUTC
12:53 AM,75.2,68.0,78,29.87,10.0,NNE,5.8,-,N/A,,Partly Cloudy,20,2011-10-13 05:53:00
1:53 AM,75.0,66.9,76,29.84,10.0,NE,8.1,-,N/A,,Scattered Clouds,40,2011-10-13 06:53:00
2:12 AM,75.2,66.2,73,29.90,10.0,NNE,5.8,-,N/A,,Mostly Cloudy,30,2011-10-13 07:12:00
2:53 AM,73.9,66.9,79,29.86,10.0,NNE,8.1,-,N/A,,Mostly Cloudy,20,2011-10-13 07:53:00
3:53 AM,73.9,66.0,76,29.86,10.0,NNE,8.1,-,N/A,,Mostly Cloudy,20,2011-10-13 08:53:00
4:53 AM,72.0,66.0,81,29.87,10.0,NNE,6.9,-,N/A,,Partly Cloudy,20,2011-10-13 09:53:00
5:53 AM,71.1,66.0,84,29.88,10.0,NNE,4.6,-,N/A,,Clear,30,2011-10-13 10:53:00
6:53 AM,71.1,64.9,81,29.90,10.0,NNE,5.8,-,N/A,,Clear,20,2011-10-13 11:53:00
7:53 AM,70.0,63.0,78,29.91,10.0,North,11.5,-,N/A,,Clear,10,2011-10-13 12:53:00
8:53 AM,73.0,61.0,66,29.93,10.0,NNE,10.4,-,N/A,,Partly Cloudy,20,2011-10-13 13:53:00
9:53 AM,77.0,57.0,50,29.95,10.0,NNE,9.2,-,N/A,,Partly Cloudy,30,2011-10-13 14:53:00
10:53 AM,81.0,48.0,31,29.96,10.0,NNE,9.2,-,N/A,,Clear,30,2011-10-13 15:53:00
11:53 AM,82.9,46.0,27,29.96,10.0,NE,12.7,-,N/A,,Clear,40,2011-10-13 16:53:00
12:53 PM,84.9,46.0,26,29.95,10.0,NNE,8.1,-,N/A,,Clear,30,2011-10-13 17:53:00
1:53 PM,86.0,44.6,23,29.98,10.0,NNW,8.1,-,N/A,,Clear,340,2011-10-13 18:53:00
2:53 PM,87.1,42.1,21,29.89,10.0,North,12.7,18.4,N/A,,Clear,10,2011-10-13 19:53:00
3:53 PM,88.0,41.0,19,29.87,10.0,NNE,6.9,-,N/A,,Clear,20,2011-10-13 20:53:00
4:53 PM,87.1,37.9,18,29.86,10.0,NNE,8.1,-,N/A,,Clear,30,2011-10-13 21:53:00
5:53 PM,87.1,41.0,20,29.86,10.0,NNE,3.5,-,N/A,,Clear,30,2011-10-13 22:53:00
6:53 PM,82.0,39.0,22,29.86,10.0,NNE,6.9,-,N/A,,Clear,20,2011-10-13 23:53:00
7:53 PM,79.0,39.0,24,29.88,10.0,NNE,3.5,-,N/A,,Clear,30,2011-10-14 00:53:00
8:53 PM,73.0,46.0,38,29.89,10.0,Calm,Calm,-,N/A,,Clear,0,2011-10-14 01:53:00
9:53 PM,73.0,43.0,34,29.90,10.0,Calm,Calm,-,N/A,,Clear,0,2011-10-14 02:53:00
10:53 PM,68.0,46.0,45,29.91,10.0,NW,3.5,-,N/A,,Clear,320,2011-10-14 03:53:00
11:53 PM,64.9,46.0,50,29.91,10.0,WNW,4.6,-,N/A,,Clear,290,2011-10-14 04:53:00